CW5306 Weather Reports


time (UTC)temp
F
wind
direction
speed
knots
gust
knots
rain 1hr
in
rain 24hr
in
rain mn
in
humidity
%
barometer
mb
20260508071308 75 80 4.3 11.3 0.00 0.04 0.04 79 1019.2
20260508070807 75 104 5.2 11.3 0.00 0.04 0.04 79 1019.2
20260508070307 75 78 3.5 12.2 0.00 0.04 0.04 80 1019.0
20260508065808 75 73 4.3 12.2 0.00 0.04 0.04 80 1019.3
20260508065308 75 97 0.0 8.7 0.00 0.04 0.04 80 1018.9
20260508064808 75 73 0.9 11.3 0.00 0.04 0.04 80 1018.9
20260508064308 75 119 3.5 11.3 0.00 0.04 0.04 80 1018.8
20260508063808 75 82 3.5 11.3 0.00 0.04 0.04 80 1019.0
20260508063308 75 73 3.5 11.3 0.00 0.04 0.04 80 1018.8
20260508062807 75 78 1.7 9.6 0.00 0.04 0.04 80 1018.9
20260508062307 75 69 3.5 9.6 0.00 0.04 0.04 80 1019.0
20260508061807 75 55 3.5 7.8 0.00 0.04 0.04 80 1018.7
20260508061538 75 77 6.1 7.8 0.00 0.04 0.04 79 1018.8
20260508061039 75 96 5.2 13.0 0.00 0.04 0.04 79 1018.7
20260508060308 75 48 0.0 13.0 0.00 0.04 0.04 79 1018.7
20260508055807 75 98 0.9 8.7 0.00 0.04 0.04 79 1018.6
20260508055307 75 63 6.1 7.8 0.00 0.04 0.04 79 1018.5
20260508055029 75 90 2.6 8.7 0.00 0.04 0.04 79 1018.5
20260508054903 75 90 0.0 8.7 0.00 0.04 0.04 79 1018.4
20260508053756 75 61 4.3 7.0 0.00 0.04 0.04 79 1018.5
20260508053256 75 86 2.6 8.7 0.00 0.04 0.04 79 1018.5
20260508052756 75 97 5.2 8.7 0.00 0.04 0.04 79 1018.4
20260508052526 75 93 4.3 9.6 0.00 0.04 0.04 79 1018.1
20260508051756 75 110 0.0 9.6 0.00 0.04 0.04 79 1018.4
20260508051256 75 43 0.0 7.8 0.00 0.04 0.04 78 1018.2
20260508050755 75 67 4.3 8.7 0.00 0.04 0.04 78 1018.1
20260508050244 75 100 4.3 8.7 0.00 0.04 0.04 78 1018.2
20260508045744 76 52 1.7 7.0 0.00 0.04 0.04 78 1018.1
20260508045515 76 103 0.0 9.6 0.00 0.04 0.04 77 1018.3
20260508044743 76 77 0.9 9.6 0.00 0.04 0.04 78 1017.9
20260508044246 76 85 0.9 9.6 0.00 0.04 0.04 77 1017.9
20260508044014 76 108 2.6 9.6 0.00 0.04 0.04 77 1017.8
20260508043232 76 18 0.0 8.7 0.00 0.04 0.04 77 1017.9
20260508042731 76 89 0.0 7.0 0.00 0.04 0.04 76 1018.0
20260508042232 76 90 0.0 7.8 0.00 0.04 0.04 76 1018.0
20260508041731 76 71 0.0 9.6 0.00 0.04 0.04 75 1017.7
20260508041231 76 101 0.9 9.6 0.00 0.04 0.04 76 1017.7
20260508041003 76 72 3.5 7.8 0.00 0.04 0.04 74 1017.5
20260508040231 76 102 2.6 7.8 0.00 0.04 0.04 74 1017.6
20260508035731 77 66 0.0 7.8 0.00 0.04 0.04 74 1017.6
20260508035219 76 121 2.6 7.8 0.00 0.04 0.04 73 1017.6
20260508034719 76 94 0.0 7.0 0.00 0.04 0.04 72 1017.7
20260508034452 76 90 0.0 7.8 0.00 0.04 0.04 72 1017.6
20260508033950 76 99 0.0 8.7 0.00 0.04 0.04 72 1017.6
20260508033219 77 66 0.0 8.7 0.00 0.04 0.04 71 1017.6
20260508032720 77 94 0.0 8.7 0.00 0.04 0.04 72 1017.6
20260508032219 77 64 6.1 9.6 0.00 0.04 0.04 73 1017.3
20260508031720 77 89 3.5 9.6 0.00 0.04 0.04 71 1017.5
20260508031220 77 105 0.9 7.8 0.00 0.04 0.04 70 1017.4
20260508030719 77 97 0.0 7.8 0.00 0.04 0.04 71 1017.5
20260508030219 78 90 5.2 8.7 0.00 0.04 0.04 71 1017.3
20260508025952 77 91 0.0 8.7 0.00 0.04 0.04 72 1017.3
20260508025220 77 94 0.9 8.7 0.00 0.04 0.04 73 1017.3
20260508024720 77 108 0.0 8.7 0.00 0.04 0.04 72 1017.3
20260508024220 78 81 1.7 8.7 0.00 0.04 0.04 70 1017.3
20260508023719 78 55 3.5 7.8 0.00 0.04 0.04 71 1017.3
20260508023451 78 136 0.0 9.6 0.00 0.04 0.04 72 1017.4
20260508022719 78 14 0.0 9.6 0.00 0.04 0.04 72 1017.2
20260508022219 78 67 5.2 9.6 0.00 0.04 0.04 72 1017.5
20260508021950 78 84 1.7 8.7 0.00 0.04 0.04 71 1017.5
20260508021219 78 24 0.0 8.7 0.00 0.04 0.04 73 1017.2
20260508020951 78 68 3.5 9.6 0.00 0.04 0.04 71 1017.5
20260508020220 78 85 7.0 9.6 0.00 0.04 0.04 70 1017.3
20260508015719 78 87 0.0 9.6 0.00 0.04 0.04 72 1017.5
20260508015220 79 75 5.2 9.6 0.00 0.04 0.04 70 1017.5
20260508014951 80 97 0.0 9.6 0.00 0.04 0.04 70 1017.5
20260508014220 79 89 0.0 9.6 0.00 0.04 0.04 70 1017.3
20260508013720 79 104 3.5 8.7 0.00 0.04 0.04 70 1017.3
20260508013221 79 68 5.2 8.7 0.00 0.04 0.04 70 1017.6
20260508012725 78 61 0.0 11.3 0.04 0.04 0.04 73 1017.8
20260508012719 79 53 3.5 11.3 0.00 0.04 0.04 71 1017.7
20260508011724 79 64 7.8 9.6 0.04 0.04 0.04 70 1017.8
20260508011232 80 53 4.3 9.6 0.04 0.04 0.04 71 1018.0
20260508010720 79 74 4.3 9.6 0.04 0.04 0.04 68 1018.0
20260508010221 79 46 0.0 9.6 0.04 0.04 0.04 70 1017.8
20260508005945 79 55 5.2 9.6 0.04 0.04 0.04 69 1018.0
20260508005158 79 100 0.0 8.7 0.04 0.04 0.04 70 1018.0
20260508004658 79 25 6.1 9.6 0.04 0.04 0.04 70 1018.1
20260508004652 79 59 1.7 9.6 0.04 0.04 0.04 70 1018.1
20260508003641 79 43 3.5 9.6 0.04 0.04 0.04 71 1018.2
20260508003137 80 54 0.0 9.6 0.04 0.04 0.04 70 1018.2
20260508002623 80 54 0.9 9.6 0.03 0.03 0.04 70 1018.2
20260508002354 80 32 4.3 9.6 0.00 0.00 0.00 71 1018.3
20260508001854 79 80 3.5 11.3 0.00 0.00 0.00 70 1018.2
20260508001123 80 38 3.5 11.3 0.00 0.00 0.00 70 1018.4
20260508000622 80 75 0.9 11.3 0.00 0.00 0.00 72 1018.4
20260508000123 80 62 3.5 11.3 0.00 0.00 0.00 70 1018.3
20260507235855 80 52 2.6 11.3 0.00 0.00 0.00 69 1018.4
20260507235354 80 86 3.5 11.3 0.00 0.00 0.00 70 1018.4
20260507234622 80 10 3.5 9.6 0.00 0.00 0.00 70 1018.4
20260507234122 80 72 5.2 11.3 0.00 0.00 0.00 72 1018.4
20260507233623 80 64 5.2 11.3 0.00 0.00 0.00 71 1018.3
20260507233123 79 60 4.3 11.3 0.00 0.00 0.00 71 1018.6
20260507232854 80 46 3.5 12.2 0.00 0.00 0.00 70 1018.4
20260507232123 80 44 4.3 12.2 0.00 0.00 0.00 73 1018.5
20260507231854 80 32 0.9 12.2 0.00 0.00 0.00 72 1018.3
20260507231124 80 30 1.7 12.2 0.00 0.00 0.00 71 1018.4
20260507230853 80 81 0.0 8.7 0.00 0.00 0.00 71 1018.2
20260507230123 80 65 3.5 11.3 0.00 0.00 0.00 70 1018.6
20260507225622 80 50 7.8 11.3 0.00 0.00 0.00 68 1018.7
20260507225123 80 52 4.3 11.3 0.00 0.00 0.00 70 1018.8
20260507224623 79 99 1.7 11.3 0.00 0.00 0.00 72 1018.7
20260507224123 80 59 7.0 12.2 0.00 0.00 0.00 73 1018.9
20260507223623 80 34 3.5 12.2 0.00 0.00 0.00 70 1018.9
20260507223123 80 55 3.5 9.6 0.00 0.00 0.00 71 1018.9
20260507222624 80 86 1.7 9.6 0.00 0.00 0.00 72 1019.2
20260507222123 79 65 6.1 12.2 0.00 0.00 0.00 72 1019.0
20260507221622 79 30 5.2 12.2 0.00 0.00 0.00 72 1019.0
20260507221123 79 82 7.0 13.0 0.00 0.00 0.00 72 1018.8
20260507220623 79 67 6.1 9.6 0.00 0.00 0.00 73 1019.2
20260507220123 79 52 0.9 9.6 0.00 0.00 0.00 73 1019.2
20260507215622 79 85 2.6 9.6 0.00 0.00 0.00 72 1019.2
20260507215124 79 76 5.2 11.3 0.00 0.00 0.00 72 1019.2
20260507214623 79 34 1.7 11.3 0.00 0.00 0.00 72 1019.3
20260507214355 79 45 7.0 11.3 0.00 0.00 0.00 72 1019.2
20260507213623 79 33 1.7 12.2 0.00 0.00 0.00 72 1019.4
20260507213122 79 60 7.8 12.2 0.00 0.00 0.00 71 1019.4
20260507212622 80 61 8.7 11.3 0.00 0.00 0.00 71 1019.4
20260507212123 79 73 0.0 11.3 0.00 0.00 0.00 72 1019.4
20260507211624 79 75 0.0 11.3 0.00 0.00 0.00 71 1019.5
20260507211123 79 78 2.6 11.3 0.00 0.00 0.00 72 1019.3
20260507210622 78 78 0.0 9.6 0.00 0.00 0.00 72 1019.7
20260507210122 78 81 1.7 9.6 0.00 0.00 0.00 73 1019.5
20260507205622 78 86 0.9 9.6 0.00 0.00 0.00 72 1019.7
20260507205122 78 75 0.0 12.2 0.00 0.00 0.00 72 1019.7
20260507204622 78 46 7.0 12.2 0.00 0.00 0.00 73 1019.6
20260507204122 79 122 4.3 11.3 0.00 0.00 0.00 72 1019.9
20260507203623 78 62 7.0 11.3 0.00 0.00 0.00 73 1019.8
20260507203123 78 62 0.0 9.6 0.00 0.00 0.00 74 1019.7
20260507202623 78 56 3.5 9.6 0.00 0.00 0.00 74 1019.7
20260507202123 77 85 3.5 8.7 0.00 0.00 0.00 74 1019.7
20260507201853 78 60 0.0 8.7 0.00 0.00 0.00 75 1019.5
20260507201110 78 39 2.6 7.8 0.00 0.00 0.00 74 1019.9
20260507200610 78 61 3.5 8.7 0.00 0.00 0.00 74 1019.6
20260507200111 78 61 3.5 8.7 0.00 0.00 0.00 73 1019.8
20260507195843 78 62 2.6 9.6 0.00 0.00 0.00 73 1020.0
20260507195110 78 53 0.9 9.6 0.00 0.00 0.00 75 1019.9
20260507194610 78 35 5.2 9.6 0.00 0.00 0.00 75 1019.8
20260507194110 78 96 0.0 9.6 0.00 0.00 0.00 74 1019.8
20260507193830 77 61 2.6 8.7 0.00 0.00 0.00 74 1019.7
20260507193047 77 109 0.0 9.6 0.00 0.00 0.00 75 1019.6
20260507192547 77 79 2.6 7.8 0.00 0.00 0.00 75 1019.8
20260507192034 77 62 0.9 9.6 0.00 0.00 0.00 75 1019.9
20260507191523 77 42 3.5 9.6 0.00 0.00 0.00 74 1019.9
20260507191023 77 69 0.0 9.6 0.00 0.00 0.00 75 1019.8
20260507190511 77 92 0.0 9.6 0.00 0.00 0.00 74 1019.7
20260507190011 77 48 0.0 9.6 0.00 0.00 0.00 75 1019.6
20260507185511 76 62 0.0 8.7 0.00 0.00 0.00 74 1019.6
20260507185011 77 50 3.5 11.3 0.00 0.00 0.00 74 1019.6
20260507184511 76 98 0.9 11.3 0.00 0.00 0.00 75 1019.8
20260507184010 76 46 3.5 11.3 0.00 0.00 0.00 75 1019.5
20260507183510 76 98 7.0 11.3 0.00 0.00 0.00 75 1019.5
20260507183010 76 68 0.0 8.7 0.00 0.00 0.00 76 1019.4
20260507182741 77 71 3.5 8.7 0.00 0.00 0.00 75 1019.7
20260507182011 76 70 1.7 9.6 0.00 0.00 0.00 75 1019.4
20260507181741 76 32 4.3 9.6 0.00 0.00 0.00 76 1019.6
20260507181242 76 55 0.0 8.7 0.00 0.00 0.00 76 1019.4
20260507180741 76 114 3.5 8.7 0.00 0.00 0.00 77 1019.3
20260507180010 75 74 3.5 7.8 0.00 0.00 0.00 77 1019.1
20260507175510 75 93 0.0 7.8 0.00 0.00 0.00 77 1019.3
20260507175011 75 49 2.6 7.0 0.00 0.00 0.00 78 1019.5
20260507174741 75 60 1.7 11.3 0.00 0.00 0.00 78 1019.1
20260507174011 75 55 3.5 11.3 0.00 0.00 0.00 78 1019.4
20260507173511 75 81 0.0 7.0 0.00 0.00 0.00 79 1019.3
20260507173011 75 51 0.0 7.8 0.00 0.00 0.00 78 1019.3
20260507172511 75 60 0.0 7.8 0.00 0.00 0.00 78 1019.2
20260507172011 75 64 0.0 8.7 0.00 0.00 0.00 77 1019.3
20260507171510 74 98 5.2 8.7 0.00 0.00 0.00 79 1019.2
20260507171012 74 69 0.0 7.8 0.00 0.00 0.00 81 1019.0
20260507170742 73 93 1.7 7.8 0.00 0.00 0.00 83 1018.9
20260507170010 72 49 0.0 0.0 0.00 0.00 0.00 89 1019.2
20260507165742 71 271 0.0 0.0 0.00 0.00 0.00 89 1019.0
20260507165242 71 272 0.0 0.0 0.00 0.00 0.00 89 1018.6
20260507164510 71 271 0.0 0.0 0.00 0.00 0.00 89 1018.7
20260507163959 70 272 0.0 0.0 0.00 0.00 0.00 89 1018.7
20260507163730 70 272 0.0 0.0 0.00 0.00 0.00 89 1018.7
20260507163000 69 271 0.0 0.0 0.00 0.00 0.00 89 1018.6
20260507162458 69 271 0.0 0.0 0.00 0.00 0.00 89 1018.2
20260507162230 69 271 0.0 0.0 0.00 0.00 0.00 89 1018.6
20260507161458 69 273 0.0 0.0 0.00 0.00 0.00 89 1018.0
20260507161229 69 272 0.0 0.0 0.00 0.00 0.00 89 1018.2
20260507160459 69 272 0.0 0.0 0.00 0.00 0.00 89 1018.0
20260507160218 69 272 0.0 0.0 0.00 0.00 0.00 89 1018.2
20260507155435 69 272 0.0 0.0 0.00 0.00 0.00 89 1018.1
20260507155212 69 272 0.0 0.0 0.00 0.00 0.00 89 1018.1
20260507154935 69 273 0.0 0.0 0.00 0.00 0.00 89 1017.8
20260507153935 69 272 0.0 0.0 0.00 0.00 0.00 89 1017.8
20260507153434 69 272 0.0 0.0 0.00 0.00 0.00 89 1017.9
20260507152934 69 272 0.0 0.0 0.00 0.00 0.00 89 1017.9
20260507152434 69 272 0.0 0.0 0.00 0.00 0.00 89 1017.9
20260507151935 69 272 0.0 0.0 0.00 0.00 0.00 89 1017.8
20260507151423 69 271 0.0 0.0 0.00 0.00 0.00 89 1017.6
20260507150924 69 272 0.0 0.0 0.00 0.00 0.00 89 1017.6
20260507150424 69 272 0.0 0.0 0.00 0.00 0.00 89 1017.5
20260507145910 69 272 0.0 0.0 0.00 0.00 0.00 88 1017.4
20260507145641 69 272 0.0 0.0 0.00 0.00 0.00 88 1017.6
20260507145142 69 271 0.0 0.0 0.00 0.00 0.00 88 1017.5
20260507144410 69 271 0.0 0.0 0.00 0.00 0.00 88 1017.4
20260507143911 69 272 0.0 0.0 0.00 0.00 0.00 88 1017.4
20260507143411 69 272 0.0 0.0 0.00 0.00 0.00 88 1017.1
20260507142911 69 272 0.0 0.0 0.00 0.00 0.00 88 1017.5
20260507142411 69 272 0.0 0.0 0.00 0.00 0.00 88 1017.4
20260507141911 69 272 0.0 0.0 0.00 0.00 0.00 88 1017.2
20260507141411 69 272 0.0 0.0 0.00 0.00 0.00 88 1017.6
20260507140911 69 271 0.0 0.0 0.00 0.00 0.00 88 1017.5
20260507140411 69 272 0.0 0.0 0.00 0.00 0.00 88 1017.4
20260507135911 69 272 0.0 0.0 0.00 0.00 0.00 88 1017.4
20260507135411 69 271 0.0 0.0 0.00 0.00 0.00 88 1017.5
20260507134910 69 271 0.0 0.0 0.00 0.00 0.00 88 1017.4
20260507134410 69 271 0.0 0.0 0.00 0.00 0.00 88 1017.2
20260507133910 69 272 0.0 0.0 0.00 0.00 0.00 88 1017.4
20260507133410 69 271 0.0 0.0 0.00 0.00 0.00 88 1017.4
20260507132910 69 271 0.0 0.0 0.00 0.00 0.00 87 1017.1
20260507132406 69 271 0.0 0.0 0.00 0.00 0.00 87 1017.3
20260507132132 69 276 0.0 0.0 0.00 0.00 0.00 87 1017.2
20260507132006 70 275 0.0 0.0 0.00 0.00 0.00 87 1017.4
20260507130900 70 275 0.0 0.0 0.00 0.00 0.00 87 1017.5
20260507130402 70 275 0.0 0.0 0.00 0.00 0.00 87 1017.5
20260507125901 70 277 0.0 0.0 0.00 0.00 0.00 87 1017.5
20260507125402 70 277 0.0 0.0 0.00 0.00 0.00 87 1017.7
20260507124901 70 277 0.0 0.0 0.00 0.00 0.00 87 1017.8
20260507124400 70 277 0.0 0.0 0.00 0.00 0.00 87 1017.6
20260507123901 70 277 0.0 0.0 0.00 0.00 0.00 87 1017.4
20260507123401 70 278 0.0 0.0 0.00 0.00 0.00 87 1017.8
20260507123352 70 278 0.0 0.0 0.00 0.00 0.00 87 1018.0
20260507122349 70 284 0.0 0.0 0.00 0.00 0.00 87 1017.9
20260507121849 70 284 0.0 0.0 0.00 0.00 0.00 87 1017.8
20260507121325 70 284 0.0 0.0 0.00 0.00 0.00 87 1018.0
20260507120824 70 284 0.0 0.0 0.00 0.00 0.00 87 1017.9
20260507120324 70 284 0.0 0.0 0.00 0.00 0.00 87 1018.0
20260507120044 70 284 0.0 0.0 0.00 0.00 0.00 87 1017.9
20260507115313 70 284 0.0 0.0 0.00 0.00 0.00 87 1018.0
20260507114814 70 319 0.0 0.0 0.00 0.00 0.00 87 1018.2
20260507114313 70 8 0.0 0.0 0.00 0.00 0.00 87 1018.0
20260507113813 71 254 0.0 0.0 0.00 0.00 0.00 87 1018.1
20260507113543 71 28 0.0 0.0 0.00 0.00 0.00 87 1018.3
20260507112813 71 8 0.0 0.0 0.00 0.00 0.00 86 1018.2
20260507112313 71 165 0.0 0.0 0.00 0.00 0.00 86 1018.3
20260507111812 71 165 0.0 0.0 0.00 0.00 0.00 86 1018.3
20260507111312 71 165 0.0 0.0 0.00 0.00 0.00 86 1018.3
20260507110812 71 165 0.0 0.0 0.00 0.00 0.00 86 1018.3
20260507110313 71 165 0.0 0.0 0.00 0.00 0.00 86 1018.5
20260507105813 71 164 0.0 0.0 0.00 0.00 0.00 85 1018.5
20260507105545 71 164 0.0 0.0 0.00 0.00 0.00 85 1018.6
20260507104813 71 164 0.0 0.0 0.00 0.00 0.00 85 1018.7
20260507104313 71 164 0.0 0.0 0.00 0.00 0.00 85 1018.4
20260507104046 71 164 0.0 0.0 0.00 0.00 0.00 85 1018.6
20260507103312 71 164 0.0 0.0 0.00 0.00 0.00 85 1018.6
20260507102812 71 164 0.0 0.0 0.00 0.00 0.00 85 1018.7
20260507102313 71 164 0.0 0.0 0.00 0.00 0.00 85 1018.5
20260507101813 71 164 0.0 0.0 0.00 0.00 0.00 85 1018.9
20260507101312 71 164 0.0 0.0 0.00 0.00 0.00 85 1018.9
20260507100814 71 164 0.0 0.0 0.00 0.00 0.00 85 1018.8
20260507100312 71 164 0.0 0.0 0.00 0.00 0.00 85 1018.9
20260507095812 71 164 0.0 0.0 0.00 0.00 0.00 85 1018.9
20260507095312 71 164 0.0 0.0 0.00 0.00 0.00 85 1018.8
20260507094813 71 164 0.0 0.0 0.00 0.00 0.00 85 1018.9
20260507094301 71 164 0.0 0.0 0.00 0.00 0.00 85 1019.0
20260507093801 71 164 0.0 0.0 0.00 0.00 0.00 85 1019.0
20260507093300 71 163 0.0 0.0 0.00 0.00 0.00 85 1019.0
20260507092800 71 163 0.0 0.0 0.00 0.00 0.00 86 1019.2
20260507092532 71 164 0.0 0.0 0.00 0.00 0.00 85 1018.9
20260507091802 71 45 0.0 0.0 0.00 0.00 0.00 86 1019.2
20260507091301 71 276 0.0 0.0 0.00 0.00 0.00 85 1019.1
20260507090750 71 271 0.0 0.0 0.00 0.00 0.00 84 1019.2
20260507090520 71 264 0.0 0.0 0.00 0.00 0.00 84 1019.3
20260507085748 71 262 0.0 0.0 0.00 0.00 0.00 84 1019.4
20260507085248 71 262 0.0 0.0 0.00 0.00 0.00 84 1019.1
20260507084748 71 262 0.0 0.0 0.00 0.00 0.00 85 1019.1
20260507084520 71 278 0.0 0.0 0.00 0.00 0.00 85 1019.1
20260507083749 71 278 0.0 0.0 0.00 0.00 0.00 85 1019.3
20260507083507 71 270 0.0 0.0 0.00 0.00 0.00 85 1019.2
20260507082736 71 279 0.0 0.0 0.00 0.00 0.00 84 1019.3
20260507082237 71 280 0.0 0.0 0.00 0.00 0.00 84 1019.1
20260507081724 71 287 0.0 0.0 0.00 0.00 0.00 83 1018.9
20260507081457 71 302 0.0 0.0 0.00 0.00 0.00 83 1019.0
20260507080712 71 244 0.0 0.0 0.00 0.00 0.00 83 1018.9
20260507080213 71 244 0.0 0.0 0.00 0.00 0.00 83 1019.0
20260507075712 71 244 0.0 0.0 0.00 0.00 0.00 83 1019.2
20260507075213 71 244 0.0 0.0 0.00 0.00 0.00 83 1019.0
20260507074932 71 244 0.0 0.0 0.00 0.00 0.00 83 1019.0
20260507074201 71 244 0.0 0.0 0.00 0.00 0.00 82 1018.9
20260507073702 72 244 0.0 0.0 0.00 0.00 0.00 82 1019.2
20260507073149 72 244 0.0 0.0 0.00 0.00 0.00 82 1019.0
20260507072651 72 243 0.0 0.0 0.00 0.00 0.00 81 1019.0
20260507072126 72 243 0.0 0.0 0.00 0.00 0.00 81 1018.9
20260507071626 72 244 0.0 0.0 0.00 0.00 0.00 80 1018.9